{"data":{"norad_id":44772,"epoch":"2026-09-19T14:28:54.443424Z","epoch_age_seconds":91763,"freshness":"FRESH","line1":"1 44772U 19074BM  26262.60340791  .00536749  16043-3  53772-3 0  9991","line2":"2 44772  53.0282 288.5662 0003893  62.6206 297.5223 16.10518632379471","mean_motion":16.10518632,"eccentricity":0.0003893,"inclination_deg":53.0282,"raan_deg":288.5662,"arg_perigee_deg":62.6206,"mean_anomaly_deg":297.5223,"bstar":0.00053772,"rev_number":37947,"period_min":89.412191289694,"perigee_km":242.84237815852,"apogee_km":247.99948036224,"semimajor_km":6623.5579292604,"source":"CELESTRAK","updated_at":"2026-09-20T09:00:38.220546Z"}}